Location: *
(45.9500°N, 9.0833°E)
Time: 18:37:02
(UTC+00:00)

CZ-4B R/B - Pass Details

Date: 03 March 2021
Orbit: 388 x 454 km, 97.6° (Epoch: 15 April)

Event Time Altitude Azimuth Distance (km) Brightness Sun altitude
Rises 18:38:14 0° 355° (N) 2,293 5.1 -15.6°
Reaches altitude 10° 18:40:46 10° 331° (NNW) 1,435 4.4 -16.0°
Maximum altitude 18:42:36 15° 294° (WNW) 1,174 4.6 -16.3°
Drops below altitude 10° 18:44:26 10° 257° (WSW) 1,438 5.1 -16.6°
Sets 18:46:59 0° 233° (SW) 2,300 5.7 -17.1°
